Regional Weather Roundup
Issued by NWS

Home | Current Version | Previous Version | Graphics & Text | Print | Product List | Glossary On
Versions: 1 2 3 4 5 6 7 8 9 10 11 12 13 14 15 16 17 18 19 20 21 22 23 24 25 26 27 28
000
ASUS45 KSLC 171810
RWRUT

UTAH REGIONAL WEATHER ROUNDUP
NATIONAL WEATHER SERVICE SALT LAKE CITY UT
1200 PM MDT THU APR 17 2014

UTZ001>011-023>025-171900-

NORTHERN UTAH

CITY           SKY/WX    TMP DP  RH WIND       PRES   REMARKS
HILL AFB       SUNNY     58  19  21 SW10      30.05F
LOGAN          SUNNY     55  21  26 CALM      30.05F
OGDEN          SUNNY     61  18  18 S12       30.04F
PROVO AIRPORT  MOSUNNY   57  25  28 E5        30.08F
SALT LAKE CITY MOSUNNY   62  19  19 S16G24    30.03F
VERNAL         SUNNY     53  16  23 S7        30.11F
WENDOVER       SUNNY     55  21  26 E8        30.03F
HEBER CITY     SUNNY     55  23  28 W5        30.08F
WEST JORDAN    SUNNY     59  28  31 SE16      30.06F

$$

UTZ012>022-026-027-171900-

SOUTHERN UTAH

CITY           SKY/WX    TMP DP  RH WIND       PRES   REMARKS
BRYCE CANYON   SUNNY     55  28  35 SE16      30.17S
CEDAR CITY     SUNNY     64  24  21 CALM      30.05F
MILFORD        SUNNY     63  23  21 VRB3      30.04F
MOAB/CYNLANDS  SUNNY     61  20  20 SE3       30.09F
PRICE          SUNNY     58  16  19 S7        30.11S
ST GEORGE      CLEAR     70  28  21 N5        29.99F
KANAB            N/A     70  25  18 S7        30.09F

$$

REGIONAL REPORTS     COLORADO/ARIZONA

CITY           SKY/WX    TMP DP  RH WIND       PRES   REMARKS
CRAIG, CO      SUNNY     52  18  26 W8        30.12F
GRAND JUNCTION SUNNY     58  20  22 CALM      30.11F
RIFLE          SUNNY     54  18  24 NW8       30.11F
MONTROSE       SUNNY     58  20  22 N7        30.13F
CORTEZ         SUNNY     60  23  24 S5G17     30.14F
PAGE, AZ       SUNNY     64  27  24 N7        30.08F
GRAND CANYON   SUNNY     66  19  16 SW10G21   30.15S
KINGMAN        SUNNY     79  16   9 SW13G18   29.99S
FLAGSTAFF      SUNNY     63  22  20 S8        30.17S

$$

REGIONAL REPORTS    NEVADA/IDAHO/WYOMING

CITY           SKY/WX    TMP DP  RH WIND       PRES   REMARKS
LAS VEGAS, NV  MOSUNNY   77  23  13 SE6       29.88F
ELY            SUNNY     59  25  27 S7        30.05F
ELKO           SUNNY     60  29  30 CALM      29.98F
POCATELLO, ID  SUNNY     59  22  24 W9G16     30.00F
BURLEY         SUNNY     60  25  26 VRB3      29.95F
EVANSTON, WY   SUNNY     50  20  30 SW13G21   30.09F
ROCK SPRINGS   SUNNY     52  14  22 W16       30.08F

$$



USA.gov is the U.S. government's official web portal to all federal, state and local government web resources and services.